Current weather by "City, St" or "zip code"  
 
Advertise Here

Current Conditions: Reagan County Airport, TX

Fair


79.0 F

Last Updated on Sep 16 2021, 9:55 pm CDT
Humidity: 48%
Wind Speed: SE 4.6 mph
Barometer 29.96 in
Dewpoint: 57.4 F
Visibility: 10.00 mi
Precip: --
Heat Index: NA
Wind Chill: NA
Current conditions at:

Reagan County Airport, TX (KE41)

Lat: 31.1989 Lon: 101.473

Local Radar Image active severe weather and emergency alerts image image weather storm and storm spotter reports image weather observation monitoring service image
Local
Radar
Active
Alerts
Storm Reports Obs
Monitoring

Sign-up For Email & Text Message Weather Alert Notification Services



Advertise Here

Observation History for Reagan County Airport, TX


Time Wind
(mph)
Vis
(mi)
Weather Precip (in) Temperature (F) Relative
Humidity
Wind
Chill
(F)
Heat
Index
(F)
Pressure
Air Dwpt altimeter
(in)
sea level
(mb)
Rmks
9:55 pm CDT SE 4.6 10.00 Fair -- 79.0 57.4 48% NA NA 29.96 M
8:55 pm CDT SE 6.9 10.00 Fair -- 82.0 57.7 43% NA 82 29.94 M
7:55 pm CDT S 5.8 10.00 Fair -- 85.0 57.6 39% NA 84 29.93 M
6:55 pm CDT S 8.1 10.00 Fair -- 89.0 57.6 35% NA 88 29.92 M
5:55 pm CDT SE 6.9 10.00 Mostly Cloudy -- 90.0 57.6 33% NA 89 29.92 M
5:35 pm CDT S 9.2 10.00 Mostly Cloudy -- 91.0 59.0 35% NA 90 29.91 M
4:55 pm CDT N 0.0 10.00 Fair -- 89.0 59.0 36% NA 88 29.91 M
3:55 pm CDT S 8.1 10.00 Fair -- 89.0 59.9 38% NA 89 29.93 M
2:55 pm CDT S 9.2 10.00 Fair -- 87.0 59.5 39% NA 86 29.96 M
1:55 pm CDT SE 9.2 10.00 Fair -- 86.0 61.0 43% NA 86 29.98 M
12:55 pm CDT S 8.1 10.00 Partly Cloudy -- 84.0 61.9 48% NA 85 30.00 M
11:55 am CDT S 10.4 10.00 Fair -- 82.0 63.1 53% NA 83 30.03 M
10:55 am CDT S 12.7 10.00 Fair -- 78.0 63.1 59% NA NA 30.04 M
9:55 am CDT S 10.4 10.00 Fair -- 75.0 63.0 67% NA NA 30.04 M
8:55 am CDT S 9.2 10.00 Fair -- 70.0 61.7 74% NA NA 30.03 M
7:55 am CDT SE 6.9 10.00 Fair -- 67.0 60.1 79% NA NA 30.01 M
6:55 am CDT SE 6.9 10.00 Fair -- 67.0 59.9 78% NA NA 30.00 M
6:35 am CDT SE 8.1 10.00 Fair -- 67.0 59.5 78% NA NA 29.99 M
5:55 am CDT SE 9.2 10.00 Fair -- 68.0 59.7 75% NA NA 29.99 M
5:35 am CDT SE 10.4 10.00 Fair -- 68.0 59.7 75% NA NA 29.98 M
4:55 am CDT SE 10.4 10.00 Fair -- 68.0 59.2 73% NA NA 29.98 M
3:55 am CDT SE 10.4 10.00 Fair -- 69.0 58.8 70% NA NA 29.98 M
2:55 am CDT SE 10.4 10.00 Fair -- 72.0 58.8 63% NA NA 29.99 M
2:35 am CDT SE 11.5 10.00 Fair -- 73.0 58.6 62% NA NA 29.99 M

Regional Weather Observation


Midland, Midland International Airport, TX (KMAF)

Fair
80.0 F

Odessa, Odessa-Schlemeyer Field, TX (KODO)

Fair
83.0 F

Ozona Municipal Airport, TX (KOZA)

Fair
81.0 F

Big Spring, Big Spring McMahon-Wrinkle Airport, TX (KBPG)

Fair
79.0 F

Midland, Midland Airpark, TX (KMDD)

Fair
83.0 F

San Angelo, Mathis Field, TX (KSJT)

Fair
78.0 F
Advertise Here


Advertise Here